Regional Weather Roundup
Issued by NWS Northern Indiana

Home | Current Version | Previous Version | Graphics & Text | Print | Product List | Glossary On
Versions: 1 2 3 4 5 6 7 8 9 10 11 12 13 14 15 16 17 18 19 20 21 22 23 24 25 26 27 28 29 30 31 32 33 34 35 36 37 38 39 40 41 42 43 44 45 46 47 48 49 50
000
ASUS43 KIWX 040310
RWRIWX

KIWX WEATHER ROUNDUP
NATIONAL WEATHER SERVICE NORTHERN INDIANA
1100 PM EDT SUN MAY 03 2015

NOTE: "FAIR" INDICATES FEW OR NO CLOUDS BELOW 12,000 FEET WITH NO
SIGNIFICANT WEATHER AND/OR OBSTRUCTIONS TO VISIBILITY.

* THESE STATIONS ARE NOT UNDER NWS QUALITY CONTROL. THEY ALSO MAY NOT
  REPORT WEATHER SUCH AS PRECIPITATION OR FOG.

INZ001>027-040400-
NORTHERN INDIANA

CITY           SKY/WX    TMP DP  RH WIND       PRES   REMARKS
GARY*          CLOUDY    61 N/A N/A CALM      29.95F
VALPARAISO     CLOUDY    71  44  37 S10       29.96F
MICHIGAN CITY* LGT RAIN  68  41  37 S7        29.96F
LAPORTE*       CLOUDY    71  45  39 S7        29.97F
KNOX*          CLOUDY    70  18  13 S13       29.97F
SOUTH BEND     CLOUDY    70  46  42 S8        29.98S
GOSHEN         CLOUDY    70  47  43 S12       29.99F
MONTICELLO*    FAIR      69  47  45 S8        30.00F
LOGANSPORT*    PTCLDY    61  45  55 S8        30.03S
ROCHESTER*     MOCLDY    70  46  43 S7        30.02S
WARSAW*        CLOUDY    70  46  43 S7        30.01F
ANGOLA*        CLEAR     68  48  49 S7        30.02S
FORT WAYNE     MOCLDY    62  50  64 S9        30.04S
HUNTINGTON*    PTCLDY    64  49  57 S3        30.04S
PERU/GRISSOM   PTCLDY    62  48  59 S8        30.02S
MARION*        PTCLDY    63  47  57 S9        30.05S

$$
INZ028>050-040400-
CENTRAL INDIANA

CITY           SKY/WX    TMP DP  RH WIND       PRES   REMARKS
LAFAYETTE      PTCLDY    66  46  48 S6        30.01S
MUNCIE*        CLEAR     67  48  50 S6        30.06R
INDIANAPOLIS   PTCLDY    68  45  43 S9        30.04S

$$
MIZ043>046-050>051-056>058-064>065-071>073-077>080-040400-
SOUTHWEST LOWER MICHIGAN

CITY           SKY/WX    TMP DP  RH WIND       PRES   REMARKS
BATTLE CREEK   PTCLDY    69  46  43 S13       29.98F
BENTON HARBOR  CLOUDY    63  52  67 S3        29.95F
COLDWATER*     MOCLDY    69  44  40 S9        30.00S
HILLSDALE*     MOCLDY    67  46  47 S6        30.02F
HOLLAND        MOCLDY    58  49  72 SW7       29.96R
GRAND RAPIDS   MOCLDY    70  44  39 S12       29.94S
KALAMAZOO      MOCLDY    70  46  42 S7        29.98S
STURGIS*       CLOUDY    70  46  43 CALM      29.99F
THREE RIVERS*  FAIR      70  46  42 S10       29.98F

$$
OHZ001>008-015>018-024>025-040400-
NORTHWEST OHIO

CITY           SKY/WX    TMP DP  RH WIND       PRES   REMARKS
WAUSEON*       FAIR      64  46  52 S9        30.03F
DEFIANCE       MOCLDY    66  47  50 S6        30.04S
FINDLAY        CLEAR     61  47  59 S10       30.06R
TOLEDO EXPRESS PTCLDY    65  46  50 S6        30.04S
TOLEDO METCALF PTCLDY    62  46  55 S7        30.05S
LIMA           CLEAR     63  47  55 S7        30.07S

$$
AND FOR LAKE MICHIGAN COASTAL AND OPEN LAKE BUOY OBSERVATIONS

STATION/POSITION TEMP    WIND        PRES    VSBY  WAVE
                 AIR SEA DIR/SP/G                  HT/PER
                 (F)     (DEG/KT/KT) (MB)    (MI)  (FT/S)
CALUMET HARBOR    65     110/  4/  7   N/A
MICHIGAN CITY     66     130/  9/ 10   N/A
BURNS HARBOR      70     180/  6/ 13 1014.6F
SAINT JOSEPH      63     150/  4/ 12 1015.2S
4 MI NW BRIDGMAN  55 49  220/ 10/ 10   N/A           1/ 2
MICHIGAN CITY     55 51  140/  4/  6   N/A           1

$$
&&



USA.gov is the U.S. government's official web portal to all federal, state and local government web resources and services.